GW4413 Weather Reports


Display with metric or nautical units.
time (UTC)temp
F
wind
direction
speed
MPH
gust
MPH
rain 1hr
in
rain 24hr
in
rain mn
in
humidity
%
barometer
mb
20260507222508 58 46 0.0 2.0 0.00 0.00 0.00 68 1019.2
20260507222011 58 46 0.0 2.0 0.00 0.00 0.00 70 1019.2
20260507221524 58 60 0.0 2.0 0.00 0.00 0.00 69 1019.2
20260507220508 58 61 1.0 2.0 0.00 0.00 0.00 69 1019.4
20260507220025 58 61 0.0 2.0 0.00 0.00 0.00 69 1019.4
20260507215508 58 67 0.0 2.0 0.00 0.00 0.00 68 1019.5
20260507215007 58 57 0.0 2.0 0.00 0.00 0.00 69 1019.6
20260507214527 58 294 0.0 3.0 0.00 0.00 0.00 69 1019.6
20260507214009 58 82 1.0 3.0 0.00 0.00 0.00 69 1019.7
20260507213513 58 352 0.0 2.0 0.00 0.00 0.00 70 1019.7
20260507213025 58 24 0.0 2.0 0.00 0.00 0.00 70 1019.7
20260507212507 58 63 1.0 3.0 0.00 0.00 0.00 70 1019.8
20260507212011 58 345 0.0 3.0 0.00 0.00 0.00 70 1019.8
20260507211523 58 15 0.0 2.0 0.00 0.00 0.00 71 1019.9
20260507211007 58 15 0.0 1.0 0.00 0.00 0.00 70 1020.0
20260507210509 58 15 0.0 1.0 0.00 0.00 0.00 71 1020.0
20260507210038 58 15 0.0 1.0 0.00 0.00 0.00 71 1020.0
20260507205507 58 15 0.0 2.0 0.00 0.00 0.00 70 1020.1
20260507205011 58 15 0.0 2.0 0.00 0.00 0.00 71 1020.1
20260507204524 57 15 0.0 2.0 0.00 0.00 0.00 72 1020.2
20260507204006 57 36 0.0 2.0 0.00 0.00 0.00 73 1020.2
20260507203509 57 40 0.0 2.0 0.00 0.00 0.00 73 1020.3
20260507203022 56 54 0.0 3.0 0.00 0.00 0.00 73 1020.4
20260507202508 56 71 0.0 3.0 0.00 0.00 0.00 72 1020.5
20260507202011 56 62 0.0 2.0 0.00 0.00 0.00 72 1020.5
20260507201525 56 62 0.0 2.0 0.00 0.00 0.00 73 1020.6
20260507201008 56 62 0.0 3.0 0.00 0.00 0.00 73 1020.6
20260507200509 55 58 0.0 3.0 0.00 0.00 0.00 75 1020.7
20260507200026 55 9 0.0 2.0 0.00 0.00 0.00 75 1020.7
20260507195010 55 11 0.0 1.0 0.00 0.00 0.00 74 1020.7
20260507194528 55 11 0.0 1.0 0.00 0.00 0.00 75 1020.6
20260507194007 55 59 0.0 2.0 0.00 0.00 0.00 76 1020.7
20260507193507 55 59 0.0 2.0 0.00 0.00 0.00 75 1020.7
20260507193031 55 59 0.0 2.0 0.00 0.00 0.00 75 1020.7
20260507192507 55 59 0.0 2.0 0.00 0.00 0.00 75 1020.7
20260507192011 55 59 0.0 3.0 0.00 0.00 0.00 74 1020.7
20260507191526 55 59 1.0 3.0 0.00 0.01 0.00 75 1020.8
20260507191008 55 64 0.0 2.0 0.00 0.01 0.00 75 1020.7
20260507190509 55 62 0.0 2.0 0.00 0.01 0.00 76 1020.8
20260507190026 55 71 0.0 2.0 0.00 0.01 0.00 76 1020.8
20260507185506 55 20 1.0 2.0 0.00 0.01 0.00 75 1020.9
20260507185013 55 56 0.0 3.0 0.00 0.01 0.00 76 1020.9
20260507184523 54 56 0.0 3.0 0.00 0.01 0.00 77 1020.9
20260507184010 54 51 0.0 1.0 0.00 0.01 0.00 78 1020.9
20260507183511 54 59 0.0 1.0 0.00 0.01 0.00 77 1021.0
20260507183029 54 59 0.0 2.0 0.00 0.01 0.00 77 1021.0
20260507182007 53 69 0.0 0.0 0.00 0.02 0.00 77 1021.0
20260507181006 53 17 0.0 0.0 0.00 0.02 0.00 78 1021.1
20260507180028 53 17 0.0 0.0 0.00 0.02 0.00 80 1021.2
20260507175504 53 17 0.0 0.0 0.00 0.02 0.00 80 1021.1
20260507175004 53 17 0.0 0.0 0.00 0.02 0.00 79 1021.1
20260507174533 53 17 0.0 2.0 0.00 0.02 0.00 79 1021.1
20260507173503 53 17 0.0 2.0 0.00 0.02 0.00 80 1021.1
20260507173034 53 17 1.0 2.0 0.00 0.02 0.00 79 1021.1
20260507172508 53 17 0.0 2.0 0.00 0.02 0.00 78 1021.0
20260507172004 53 17 0.0 1.0 0.00 0.02 0.00 81 1021.0
20260507171005 52 17 0.0 0.0 0.00 0.02 0.00 81 1021.0
20260507170506 52 17 0.0 0.0 0.00 0.02 0.00 81 1021.0
20260507170022 52 17 0.0 0.0 0.00 0.02 0.00 82 1021.0
20260507165506 52 17 0.0 0.0 0.00 0.02 0.00 81 1021.0
20260507165003 52 17 0.0 0.0 0.00 0.02 0.00 81 1021.0
20260507164526 51 17 0.0 0.0 0.00 0.02 0.00 81 1021.0
20260507164009 51 17 0.0 0.0 0.00 0.02 0.00 82 1021.1
20260507163504 51 17 0.0 0.0 0.00 0.03 0.00 81 1021.1
20260507163025 51 17 0.0 0.0 0.00 0.03 0.00 81 1021.1
20260507162509 51 17 0.0 0.0 0.00 0.03 0.00 81 1021.1
20260507162004 51 17 0.0 0.0 0.00 0.03 0.00 82 1021.1
20260507161527 51 17 0.0 0.0 0.00 0.03 0.00 82 1021.1
20260507161008 51 17 0.0 0.0 0.00 0.03 0.00 82 1021.1
20260507160506 50 17 0.0 0.0 0.00 0.03 0.00 82 1021.1
20260507155510 50 17 0.0 0.0 0.00 0.03 0.00 81 1021.3
20260507154530 50 17 0.0 0.0 0.00 0.03 0.00 82 1021.3
20260507154009 50 17 0.0 0.0 0.00 0.03 0.00 82 1021.4
20260507153504 50 17 0.0 0.0 0.00 0.03 0.00 83 1021.3
20260507153036 50 17 0.0 0.0 0.00 0.03 0.00 84 1021.4
20260507152006 50 17 0.0 0.0 0.00 0.03 0.00 84 1021.4
20260507151526 50 17 0.0 0.0 0.00 0.03 0.00 84 1021.3
20260507151007 50 17 0.0 0.0 0.00 0.03 0.00 85 1021.3
20260507150504 50 17 0.0 0.0 0.00 0.03 0.00 85 1021.3
20260507145505 49 17 0.0 0.0 0.00 0.03 0.00 84 1021.2
20260507145007 49 17 0.0 0.0 0.00 0.03 0.00 84 1021.2
20260507144523 49 17 0.0 0.0 0.00 0.03 0.00 84 1021.1
20260507144007 49 17 0.0 0.0 0.00 0.03 0.00 83 1021.1
20260507143504 49 17 0.0 0.0 0.00 0.03 0.00 85 1021.1
20260507143027 49 17 0.0 0.0 0.00 0.03 0.00 84 1021.1
20260507142509 49 17 0.0 0.0 0.00 0.03 0.00 85 1021.0
20260507142003 48 17 0.0 0.0 0.00 0.03 0.00 85 1021.0
20260507141525 48 17 0.0 0.0 0.00 0.03 0.00 85 1021.0
20260507141008 48 17 0.0 0.0 0.00 0.03 0.00 85 1020.9
20260507140505 48 17 0.0 0.0 0.00 0.03 0.00 86 1020.9
20260507140025 48 17 0.0 0.0 0.00 0.03 0.00 86 1020.9
20260507135505 48 17 0.0 0.0 0.00 0.03 0.00 87 1020.9
20260507135011 48 17 0.0 0.0 0.00 0.03 0.00 86 1020.8
20260507134524 48 17 0.0 0.0 0.00 0.03 0.00 86 1020.9
20260507134006 48 17 0.0 0.0 0.00 0.03 0.00 86 1021.0
20260507133509 48 17 0.0 0.0 0.00 0.03 0.00 86 1021.0
20260507133024 48 17 0.0 0.0 0.00 0.03 0.00 86 1021.0
20260507132506 48 17 0.0 0.0 0.00 0.03 0.00 86 1021.1
20260507132011 48 17 0.0 0.0 0.00 0.03 0.00 85 1021.0
20260507131524 48 17 0.0 0.0 0.00 0.03 0.00 85 1021.0
20260507130511 48 17 0.0 0.0 0.00 0.03 0.00 85 1021.0
20260507130036 48 17 0.0 0.0 0.00 0.03 0.00 85 1021.0
20260507125508 48 17 0.0 0.0 0.00 0.03 0.00 84 1021.0
20260507125012 48 17 0.0 0.0 0.00 0.03 0.00 85 1021.0
20260507124528 48 17 0.0 0.0 0.00 0.03 0.00 84 1021.1
20260507124006 48 17 0.0 0.0 0.00 0.03 0.00 84 1021.0
20260507123511 49 17 0.0 0.0 0.00 0.03 0.00 84 1021.0
20260507123024 49 17 0.0 0.0 0.00 0.03 0.00 85 1021.0
20260507122508 49 17 0.0 0.0 0.00 0.03 0.00 84 1021.2
20260507122012 49 17 0.0 0.0 0.00 0.03 0.00 84 1021.2
20260507121522 49 17 0.0 0.0 0.00 0.03 0.00 85 1021.3
20260507121008 49 17 0.0 0.0 0.00 0.03 0.00 85 1021.2
20260507120511 49 17 0.0 0.0 0.00 0.03 0.00 85 1021.2
20260507120024 49 17 0.0 0.0 0.00 0.03 0.00 85 1021.2
20260507115505 49 17 0.0 0.0 0.00 0.03 0.00 86 1021.2
20260507115011 49 17 0.0 0.0 0.00 0.03 0.00 85 1021.3
20260507114525 49 17 0.0 0.0 0.00 0.03 0.00 86 1021.2
20260507114014 49 17 0.0 0.0 0.00 0.03 0.00 86 1021.2
20260507113510 49 17 0.0 0.0 0.00 0.03 0.00 86 1021.3
20260507113024 49 17 0.0 0.0 0.00 0.03 0.00 86 1021.2
20260507112504 49 17 0.0 0.0 0.00 0.03 0.00 86 1021.1
20260507112011 49 17 0.0 0.0 0.00 0.03 0.00 86 1021.1
20260507111526 49 17 0.0 0.0 0.00 0.03 0.00 86 1021.2
20260507111006 49 17 0.0 0.0 0.00 0.03 0.00 87 1021.3
20260507110509 49 17 0.0 0.0 0.00 0.03 0.00 86 1021.3
20260507110028 49 17 0.0 0.0 0.00 0.03 0.00 87 1021.3
20260507105508 49 17 0.0 0.0 0.00 0.03 0.00 86 1021.1
20260507105007 49 17 0.0 0.0 0.00 0.03 0.00 86 1021.2
20260507104527 49 17 0.0 0.0 0.00 0.03 0.00 86 1021.1
20260507104009 49 17 0.0 0.0 0.00 0.03 0.00 86 1021.2
20260507103506 49 17 0.0 0.0 0.00 0.03 0.00 86 1021.2
20260507103030 49 17 0.0 0.0 0.00 0.03 0.00 86 1021.2
20260507102507 49 17 0.0 0.0 0.00 0.03 0.00 86 1021.2
20260507101526 49 17 0.0 0.0 0.00 0.03 0.00 87 1021.3
20260507101005 49 17 0.0 0.0 0.00 0.03 0.00 86 1021.3
20260507100507 49 17 0.0 0.0 0.00 0.03 0.00 87 1021.3
20260507100033 49 17 0.0 0.0 0.00 0.03 0.00 86 1021.2
20260507095509 49 17 0.0 0.0 0.00 0.03 0.00 86 1021.3
20260507095010 49 17 0.0 0.0 0.00 0.03 0.00 86 1021.3
20260507094527 49 17 0.0 0.0 0.00 0.03 0.00 86 1021.2
20260507094010 50 17 0.0 0.0 0.00 0.03 0.00 86 1021.3
20260507093510 50 17 0.0 0.0 0.00 0.03 0.00 87 1021.3
20260507093026 50 17 0.0 0.0 0.00 0.03 0.00 87 1021.3
20260507092513 50 17 0.0 0.0 0.00 0.03 0.00 86 1021.4
20260507091527 50 17 0.0 0.0 0.00 0.03 0.00 86 1021.4
20260507090510 50 17 0.0 0.0 0.00 0.03 0.00 86 1021.4
20260507090006 50 17 0.0 0.0 0.00 0.03 0.00 87 1021.5
20260507085509 50 17 0.0 0.0 0.00 0.03 0.00 87 1021.4
20260507085004 50 17 0.0 0.0 0.00 0.03 0.00 86 1021.5
20260507084506 51 17 0.0 0.0 0.00 0.03 0.00 88 1021.6
20260507084008 51 17 0.0 0.0 0.00 0.03 0.00 88 1021.5
20260507083504 51 17 0.0 0.0 0.00 0.03 0.00 88 1021.6
20260507083007 51 17 0.0 0.0 0.00 0.03 0.00 88 1021.6
20260507082508 51 17 0.0 0.0 0.00 0.03 0.00 89 1021.5
20260507082003 51 17 0.0 0.0 0.00 0.03 0.00 88 1021.5
20260507081008 51 17 0.0 0.0 0.00 0.03 0.00 90 1021.5
20260507080008 51 17 0.0 0.0 0.00 0.03 0.00 90 1021.4
20260507075508 51 17 0.0 0.0 0.00 0.03 0.00 91 1021.4
20260507075006 51 17 0.0 0.0 0.00 0.03 0.00 91 1021.4
20260507074504 51 17 0.0 0.0 0.00 0.03 0.00 91 1021.3
20260507073507 51 17 0.0 0.0 0.00 0.03 0.00 90 1021.3
20260507073005 51 17 0.0 0.0 0.00 0.03 0.00 91 1021.3
20260507072505 51 17 0.0 0.0 0.00 0.03 0.00 91 1021.1
20260507072008 51 17 0.0 0.0 0.00 0.03 0.00 91 1021.2
20260507071006 51 17 0.0 0.0 0.00 0.03 0.00 91 1021.1
20260507070511 51 17 0.0 0.0 0.00 0.03 0.00 91 1021.1
20260507070009 51 17 0.0 0.0 0.00 0.03 0.00 91 1021.0
20260507065507 51 17 0.0 0.0 0.00 0.03 0.03 91 1021.0
20260507064504 51 17 0.0 0.0 0.00 0.03 0.03 91 1021.1
20260507064010 51 17 0.0 0.0 0.00 0.03 0.03 91 1021.0
20260507063008 51 17 0.0 0.0 0.00 0.03 0.03 91 1021.1
20260507062006 51 17 0.0 0.0 0.00 0.03 0.03 92 1021.1
20260507061503 51 17 0.0 0.0 0.00 0.03 0.03 92 1021.1
20260507061007 51 17 0.0 0.0 0.00 0.03 0.03 92 1021.2
20260507060506 51 17 0.0 0.0 0.00 0.03 0.03 92 1021.1
20260507055508 51 17 0.0 0.0 0.00 0.03 0.03 92 1021.2
20260507054504 50 17 0.0 0.0 0.00 0.03 0.03 92 1021.3
20260507054012 50 17 0.0 0.0 0.00 0.03 0.03 92 1021.3
20260507053508 50 17 0.0 0.0 0.00 0.03 0.03 92 1021.3
20260507053004 50 17 0.0 0.0 0.00 0.03 0.03 92 1021.4
20260507052509 50 17 0.0 0.0 0.00 0.03 0.03 92 1021.4
20260507052004 50 17 0.0 0.0 0.00 0.03 0.03 92 1021.4
20260507051531 50 17 0.0 0.0 0.00 0.03 0.03 92 1021.5
20260507051007 50 17 0.0 0.0 0.00 0.03 0.03 92 1021.5
20260507050506 50 17 0.0 0.0 0.00 0.03 0.03 91 1021.5
20260507050032 50 17 0.0 0.0 0.00 0.03 0.03 91 1021.6
20260507045509 50 17 0.0 0.0 0.00 0.03 0.03 91 1021.6
20260507044529 51 17 0.0 0.0 0.00 0.03 0.03 90 1021.5
20260507044008 51 17 0.0 0.0 0.00 0.03 0.03 90 1021.5
20260507043507 51 17 0.0 0.0 0.00 0.03 0.03 90 1021.4
20260507043026 51 17 0.0 0.0 0.00 0.03 0.03 90 1021.4
20260507042505 51 17 0.0 0.0 0.00 0.03 0.03 89 1021.4
20260507042004 52 17 0.0 0.0 0.00 0.03 0.03 89 1021.4
20260507041525 52 17 0.0 0.0 0.00 0.03 0.03 89 1021.4
20260507041007 52 17 0.0 0.0 0.00 0.03 0.03 89 1021.4
20260507040505 52 17 0.0 0.0 0.00 0.03 0.03 89 1021.4
20260507035506 52 17 0.0 0.0 0.00 0.03 0.03 89 1021.3
20260507035003 52 17 0.0 0.0 0.00 0.03 0.03 89 1021.3
20260507034534 52 17 0.0 0.0 0.00 0.03 0.03 88 1021.2
20260507034006 53 17 0.0 0.0 0.00 0.03 0.03 88 1021.2
20260507033506 53 17 0.0 0.0 0.00 0.03 0.03 88 1021.1
20260507033038 53 17 0.0 0.0 0.00 0.03 0.03 88 1021.1
20260507032509 53 17 0.0 0.0 0.00 0.03 0.03 88 1021.1
20260507032003 53 17 0.0 0.0 0.00 0.03 0.03 88 1021.0
20260507031524 53 17 0.0 0.0 0.00 0.03 0.03 88 1021.0
20260507030507 53 17 0.0 0.0 0.00 0.03 0.03 87 1020.9
20260507030027 53 17 0.0 0.0 0.00 0.03 0.03 87 1020.9
20260507025506 53 17 0.0 0.0 0.00 0.03 0.03 88 1020.9
20260507025005 53 17 0.0 0.0 0.00 0.03 0.03 87 1021.0
20260507024008 53 17 0.0 0.0 0.00 0.03 0.03 87 1020.9
20260507023507 53 17 0.0 0.0 0.00 0.03 0.03 87 1020.9
20260507023027 53 17 0.0 0.0 0.00 0.03 0.03 87 1021.0
20260507022507 53 17 0.0 0.0 0.00 0.03 0.03 87 1021.0
20260507022003 53 17 0.0 0.0 0.00 0.03 0.03 87 1021.0
20260507021524 53 17 0.0 0.0 0.00 0.03 0.03 86 1021.0
20260507021010 53 17 0.0 0.0 0.00 0.03 0.03 86 1021.0
20260507020510 53 17 0.0 0.0 0.00 0.03 0.03 87 1021.0
20260507020026 53 17 0.0 0.0 0.00 0.03 0.03 87 1021.0
20260507015507 54 17 0.0 0.0 0.00 0.03 0.03 88 1021.0
20260507015012 54 17 0.0 0.0 0.00 0.03 0.03 87 1021.0
20260507014525 54 17 0.0 0.0 0.00 0.03 0.03 87 1021.0
20260507014008 54 17 0.0 0.0 0.00 0.03 0.03 86 1021.0
20260507013508 54 17 0.0 0.0 0.00 0.03 0.03 86 1020.9
20260507012510 54 17 0.0 0.0 0.00 0.03 0.03 87 1020.9
20260507011533 54 17 0.0 0.0 0.00 0.03 0.03 85 1020.9
20260507011007 54 17 0.0 0.0 0.00 0.03 0.03 86 1020.9
20260507010509 54 17 0.0 0.0 0.00 0.03 0.03 86 1020.9
20260507010027 54 17 0.0 0.0 0.00 0.03 0.03 85 1020.9
20260507005010 54 17 0.0 0.0 0.00 0.03 0.03 85 1021.0
20260507004535 54 17 0.0 0.0 0.00 0.03 0.03 85 1021.0
20260507004007 54 17 0.0 0.0 0.00 0.03 0.03 86 1021.0
20260507003512 54 17 0.0 0.0 0.00 0.03 0.03 86 1021.0
20260507002508 54 17 0.0 0.0 0.00 0.03 0.03 87 1021.0
20260507001007 54 17 0.0 0.0 0.00 0.03 0.03 87 1020.9
20260507000509 54 17 0.0 0.0 0.00 0.03 0.03 89 1020.9
20260506235009 53 17 0.0 0.0 0.00 0.03 0.03 88 1020.9
20260506234523 53 17 0.0 0.0 0.00 0.03 0.03 89 1020.9
20260506234007 53 17 0.0 0.0 0.00 0.03 0.03 88 1021.0
20260506233510 53 17 0.0 0.0 0.00 0.03 0.03 89 1021.0
20260506233026 53 17 0.0 0.0 0.00 0.03 0.03 89 1021.0
20260506232507 53 17 0.0 0.0 0.00 0.03 0.03 90 1021.0
20260506231007 53 17 0.0 0.0 0.00 0.03 0.03 91 1021.1
20260506230010 52 17 0.0 0.0 0.00 0.03 0.03 91 1021.1
20260506225507 52 17 0.0 0.0 0.00 0.03 0.03 91 1021.1
20260506225005 52 17 0.0 0.0 0.00 0.03 0.03 92 1021.2
20260506224514 52 17 0.0 0.0 0.00 0.03 0.03 92 1021.3
20260506224009 52 17 0.0 0.0 0.00 0.03 0.03 93 1021.2
20260506223508 52 17 0.0 0.0 0.00 0.03 0.03 92 1021.1
20260506223009 52 17 0.0 0.0 0.00 0.03 0.03 92 1021.2